[[{"header":{"parameterUnit":"m.s-1","parameterCategory":1,"la1":30.2991,"la2":30.254,"lo1":-89.0895,"lo2":-89.0444,"dx":0.0017,"dy":0.0017,"nx":28,"ny":28,"refTime":"2022-12-05T15:00:00:Z","depth":0,"parameterNumber":2,"parameterNumberName":"U-component_of_WINDS"},"data":[0,0,0,0,0,0,0,0,0,0,0,0,0,0,0,0,0,0,0,0,0,0,0,0,0,0,0,0,0,0,0,0,0,0,0,0,0,0,0,0,0,0,0,0,0,0,0,0,0,0,0,0,0,0,0,0,0,0,-0.4147,-0.4146,0,-0.4095,-0.4095,-0.4094,-0.4073,-0.4073,-0.4073,-0.4073,-0.4019,-0.4017,-0.4016,0,0,0,0,0,0,0,0,0,0,0,0,0,-0.4227,-0.4226,-0.4147,-0.4146,-0.4146,-0.4095,-0.4095,-0.4094,-0.4073,-0.4073,-0.4073,-0.4074,-0.4019,-0.4018,-0.4016,0,0,0,0,0,0,0,0,0,0,0,0,0,-0.4186,-0.4225,-0.4147,-0.4129,-0.4127,-0.4095,-0.4094,-0.4094,-0.4073,-0.4073,-0.4073,-0.4074,-0.402,-0.4018,-0.4015,-0.3997,0,0,-0.4008,-0.4007,0,0,0,0,0,0,0,0,-0.4188,-0.4183,-0.4133,-0.413,-0.4128,-0.4091,-0.4103,-0.4061,-0.4073,-0.4094,-0.4073,-0.4074,-0.4043,-0.4038,-0.4028,-0.3994,-0.3992,-0.4008,-0.4007,-0.4006,-0.4005,0,0,0,0,0,0,0,-0.4191,-0.4185,-0.4126,-0.4132,-0.4129,-0.4124,-0.4118,-0.4095,-0.4068,-0.4092,-0.409,-0.4084,-0.4041,-0.4031,-0.4027,-0.3991,-0.4008,-0.4006,-0.4005,-0.4004,-0.3941,-0.394,0,0,0,0,0,0,-0.4197,-0.4187,-0.4128,-0.4125,-0.4159,-0.4122,-0.4116,-0.4103,-0.4068,-0.4063,-0.4084,-0.4084,-0.4034,-0.403,-0.4025,-0.4001,-0.4006,-0.4003,-0.4002,-0.3941,-0.3941,-0.394,0,0,0,0,0,0,-0.4199,-0.4192,-0.413,-0.4156,-0.4147,-0.412,-0.4106,-0.4101,-0.4091,-0.4062,-0.4057,-0.4078,-0.4034,-0.4028,-0.4004,-0.3999,-0.4002,-0.4,-0.3941,-0.3941,-0.394,-0.3954,0,0,0,0,0,0,-0.4201,-0.4193,-0.4185,-0.4156,-0.4146,-0.4111,-0.4106,-0.41,-0.4087,-0.4085,-0.4055,-0.405,-0.4034,-0.4008,-0.4002,-0.3996,-0.3998,-0.3941,-0.3941,-0.3941,-0.3954,-0.3954,-0.3954,0,0,0,0,0,-0.4204,-0.4191,-0.4185,-0.4178,-0.4137,-0.411,-0.4105,-0.4087,-0.4086,-0.4079,-0.4061,-0.4051,-0.4001,-0.4006,-0.3999,-0.3992,-0.3942,-0.3941,-0.3941,-0.3953,-0.3954,-0.3954,0,0,0,0,0,0,-0.422,-0.4186,-0.418,-0.4157,-0.4137,-0.4107,-0.4097,-0.4088,-0.4067,-0.4067,-0.4045,-0.4038,-0.4017,-0.4002,-0.4008,-0.3973,-0.3971,-0.3969,-0.3983,-0.3983,-0.3983,-0.3987,-0.3996,0,0,0,0,0,-0.4221,-0.4202,-0.4174,-0.4156,-0.4147,-0.4124,-0.4112,-0.41,-0.4078,-0.4069,-0.4049,-0.4028,-0.4008,-0.3995,-0.3974,-0.3952,-0.3945,-0.3944,-0.3944,-0.3944,-0.3942,-0.393,-0.3929,-0.3938,-0.3938,-0.3938,0,0,-0.4222,-0.4202,-0.4191,-0.4159,-0.4142,-0.4124,-0.4117,-0.4097,-0.4083,-0.4066,-0.4043,-0.4028,-0.4003,-0.398,-0.3969,-0.3967,-0.3939,-0.3943,-0.3944,-0.3942,-0.3929,-0.3928,-0.3928,-0.3938,-0.3938,-0.3938,0,0,-0.4215,-0.4198,-0.4181,-0.4165,-0.414,-0.4124,-0.4121,-0.4093,-0.4082,-0.4058,-0.4045,-0.4029,-0.3993,-0.3976,-0.3963,-0.3951,-0.3942,-0.3945,-0.3946,-0.3934,-0.3933,-0.3932,-0.3928,-0.3927,-0.3944,-0.3944,-0.3944,0,-0.4219,-0.4191,-0.4174,-0.4155,-0.4141,-0.4126,-0.4109,-0.4094,-0.4063,-0.4054,-0.4053,-0.4009,-0.3991,-0.3964,-0.3962,-0.3952,-0.3946,-0.3948,-0.3935,-0.3934,-0.3933,-0.3928,-0.3927,-0.3944,-0.3944,-0.3944,-0.3944,0,-0.4198,-0.4179,-0.4169,-0.414,-0.4125,-0.4108,-0.4087,-0.4075,-0.4065,-0.405,-0.4026,-0.4004,-0.3979,-0.3972,-0.3962,-0.3944,-0.3944,-0.3939,-0.3936,-0.3933,-0.3928,-0.3927,-0.3945,-0.3945,-0.3945,-0.3945,0,0,-0.4198,-0.4161,-0.4158,-0.4145,-0.4116,-0.4101,-0.4083,-0.406,-0.4049,-0.4029,-0.4013,-0.3985,-0.398,-0.3965,-0.3953,-0.3943,-0.3935,-0.3939,-0.3938,-0.3939,-0.3914,-0.3918,-0.3916,-0.3929,-0.3928,-0.3928,-0.3916,0,-0.4187,-0.4154,-0.4138,-0.4112,-0.4095,-0.408,-0.4065,-0.4046,-0.4032,-0.4015,-0.3999,-0.3979,-0.3975,-0.3966,-0.3955,-0.3938,-0.3929,-0.3939,-0.3914,-0.3913,-0.392,-0.3914,-0.3917,-0.3907,-0.3914,-0.3914,-0.3914,0,-0.4169,-0.415,-0.4122,-0.4097,-0.4089,-0.4075,-0.4052,-0.4036,-0.4015,-0.4005,-0.3989,-0.3978,-0.3958,-0.3958,-0.3931,-0.3938,-0.3927,-0.3917,-0.3916,-0.3913,-0.3913,-0.3909,-0.3903,-0.3901,-0.3911,-0.3911,-0.3911,0,-0.4172,-0.4139,-0.4118,-0.4107,-0.4077,-0.4068,-0.4055,-0.4034,-0.4021,-0.4001,-0.3993,-0.3971,-0.3959,-0.3942,-0.3925,-0.3927,-0.39,-0.3898,-0.3892,-0.3892,-0.3886,-0.3886,-0.3877,-0.388,-0.388,-0.388,-0.388,0,-0.416,-0.4144,-0.4119,-0.4106,-0.4087,-0.407,-0.4052,-0.4038,-0.4019,-0.4003,-0.399,-0.3976,-0.3954,-0.3937,-0.3924,-0.3904,-0.3899,-0.389,-0.3887,-0.3891,-0.3892,-0.3883,-0.3883,-0.388,-0.388,-0.388,-0.388,0,-0.4159,-0.4142,-0.4118,-0.4092,-0.4085,-0.4073,-0.405,-0.4038,-0.4024,-0.4004,-0.3998,-0.3976,-0.3956,-0.3937,-0.391,-0.3901,-0.388,-0.3876,-0.3888,-0.3886,-0.388,-0.388,-0.3864,-0.3861,-0.3866,-0.3866,-0.3866,0,-0.4153,-0.414,-0.4113,-0.4101,-0.4089,-0.4071,-0.4058,-0.404,-0.4027,-0.4003,-0.3993,-0.3972,-0.3953,-0.3921,-0.3903,-0.3882,-0.3877,-0.3873,-0.3874,-0.3879,-0.3876,-0.3877,-0.3876,-0.3872,-0.3872,-0.3872,-0.3872,0,-0.4143,-0.4135,-0.4117,-0.4096,-0.4081,-0.4064,-0.4046,-0.4038,-0.4017,-0.4003,-0.3982,-0.3968,-0.3941,-0.392,-0.3897,-0.3884,-0.3875,-0.3873,-0.387,-0.3874,-0.3881,-0.3877,-0.3887,-0.3873,-0.3873,-0.3873,-0.3873,-0.3873,-0.4138,-0.4126,-0.4106,-0.4086,-0.4071,-0.4055,-0.4042,-0.4027,-0.4009,-0.3986,-0.3977,-0.3956,-0.3936,-0.3904,-0.3891,-0.3875,-0.3873,-0.3869,-0.3868,-0.3867,-0.3868,-0.3884,-0.3871,-0.387,-0.387,-0.387,-0.387,0,-0.4127,-0.4114,-0.4096,-0.4072,-0.4057,-0.4051,-0.4031,-0.4019,-0.4,-0.3982,-0.3965,-0.3942,-0.3922,-0.3902,-0.3881,-0.3872,-0.3867,-0.3867,-0.3867,-0.3864,-0.387,-0.3875,-0.3871,-0.3871,-0.3871,-0.3871,-0.3871,-0.3871,-0.412,-0.4099,-0.409,-0.4062,-0.4048,-0.4028,-0.4017,-0.4002,-0.3988,-0.3963,-0.3946,-0.3934,-0.3916,-0.3894,-0.3875,-0.387,-0.3863,-0.3864,-0.3857,-0.3863,-0.3863,-0.3864,-0.3867,-0.3862,-0.3862,-0.3852,-0.3852,-0.3852]},{"header":{"parameterUnit":"m.s-1","parameterCategory":1,"la1":30.2991,"la2":30.254,"lo1":-89.0895,"lo2":-89.0444,"dx":0.0017,"dy":0.0017,"nx":28,"ny":28,"refTime":"2022-12-05T15:00:00:Z","depth":0,"parameterNumber":3,"parameterNumberName":"V-component_of_WINDS"},"data":[0,0,0,0,0,0,0,0,0,0,0,0,0,0,0,0,0,0,0,0,0,0,0,0,0,0,0,0,0,0,0,0,0,0,0,0,0,0,0,0,0,0,0,0,0,0,0,0,0,0,0,0,0,0,0,0,0,0,3.5039,3.5038,0,3.5006,3.5006,3.5006,3.4971,3.4971,3.497,3.497,3.4935,3.4935,3.4934,0,0,0,0,0,0,0,0,0,0,0,0,0,3.5068,3.5068,3.5039,3.5038,3.5038,3.5006,3.5006,3.5006,3.4971,3.4971,3.497,3.497,3.4935,3.4935,3.4934,0,0,0,0,0,0,0,0,0,0,0,0,0,3.5047,3.5067,3.5039,3.5017,3.5015,3.5007,3.5006,3.5005,3.4971,3.4971,3.497,3.4969,3.4935,3.4935,3.4934,3.4944,0,0,3.4932,3.4931,0,0,0,0,0,0,0,0,3.5049,3.5046,3.502,3.5018,3.5016,3.4992,3.5004,3.4985,3.4972,3.4988,3.497,3.4969,3.4954,3.4952,3.4948,3.4942,3.4941,3.4932,3.4931,3.4931,3.4931,0,0,0,0,0,0,0,3.505,3.5048,3.5026,3.502,3.5017,3.5008,3.5004,3.5,3.4975,3.4986,3.4984,3.498,3.4953,3.4948,3.4947,3.494,3.4932,3.4931,3.4931,3.493,3.4941,3.4942,0,0,0,0,0,0,3.5055,3.5049,3.5027,3.5025,3.5031,3.5008,3.5004,3.5,3.4975,3.4971,3.4981,3.4979,3.495,3.4947,3.4945,3.4955,3.4931,3.493,3.493,3.494,3.4941,3.4942,0,0,0,0,0,0,3.5056,3.5053,3.5028,3.5036,3.5032,3.5008,3.5005,3.5,3.4996,3.4972,3.4967,3.4981,3.4949,3.4946,3.4945,3.4954,3.493,3.4929,3.494,3.4941,3.4942,3.4976,0,0,0,0,0,0,3.5057,3.5054,3.5058,3.5037,3.5032,3.5029,3.5005,3.5,3.4995,3.4992,3.497,3.4966,3.4948,3.4946,3.4944,3.4952,3.4929,3.4939,3.494,3.4941,3.4974,3.4978,3.4982,0,0,0,0,0,3.5058,3.5069,3.5059,3.5056,3.5037,3.503,3.5027,3.5007,3.4996,3.4999,3.4984,3.4967,3.4953,3.4946,3.4944,3.4952,3.4938,3.494,3.4941,3.4972,3.4977,3.4982,0,0,0,0,0,0,3.5092,3.5066,3.5054,3.5058,3.5047,3.5024,3.5028,3.5013,3.5004,3.5001,3.4976,3.4972,3.4973,3.4962,3.4955,3.496,3.4943,3.4944,3.4967,3.4972,3.4976,3.4979,3.4928,0,0,0,0,0,3.51,3.5097,3.5074,3.508,3.5074,3.5052,3.5048,3.5034,3.502,3.5015,3.4999,3.4986,3.4979,3.4975,3.4966,3.4972,3.4966,3.4976,3.498,3.4983,3.4985,3.4986,3.499,3.4947,3.4947,3.4947,0,0,3.5116,3.5101,3.5101,3.5086,3.5075,3.5072,3.5048,3.5046,3.5043,3.5014,3.5012,3.5,3.4984,3.4986,3.4986,3.4977,3.4995,3.4985,3.4988,3.4988,3.4988,3.4992,3.4996,3.4948,3.4948,3.4948,0,0,3.5145,3.5133,3.5137,3.5127,3.5111,3.5096,3.5097,3.5076,3.5067,3.5064,3.5043,3.5038,3.5026,3.5016,3.5008,3.5032,3.5016,3.503,3.505,3.5052,3.5055,3.5058,3.5066,3.507,3.5031,3.5031,3.5031,0,3.5167,3.5162,3.5141,3.514,3.5133,3.5108,3.5111,3.5101,3.5083,3.5079,3.5069,3.5053,3.504,3.5039,3.5045,3.504,3.504,3.5032,3.5057,3.5059,3.5062,3.5069,3.5072,3.5033,3.5033,3.5033,3.5032,0,3.519,3.5187,3.5192,3.5176,3.517,3.5171,3.5149,3.5145,3.5131,3.5117,3.5114,3.5098,3.5086,3.5084,3.507,3.5081,3.5075,3.5061,3.5044,3.5068,3.5075,3.5077,3.5036,3.5035,3.5034,3.5034,0,0,3.524,3.5212,3.5214,3.5206,3.5186,3.5183,3.5182,3.5171,3.5168,3.5156,3.5155,3.5145,3.5131,3.5123,3.5107,3.5109,3.5128,3.5094,3.5094,3.5102,3.5139,3.515,3.5154,3.5117,3.5118,3.5118,3.514,0,3.5266,3.5264,3.5244,3.5248,3.5245,3.5219,3.5219,3.5206,3.5192,3.5186,3.5171,3.5164,3.5147,3.5142,3.5142,3.5126,3.5135,3.5124,3.5115,3.5115,3.5121,3.5157,3.5169,3.5191,3.5143,3.5143,3.5143,0,3.5296,3.5286,3.529,3.5269,3.5267,3.5267,3.5254,3.5249,3.5234,3.5223,3.5214,3.5196,3.5193,3.5176,3.5171,3.5164,3.5159,3.515,3.515,3.5149,3.5131,3.5158,3.5198,3.5201,3.5147,3.5147,3.5147,0,3.5332,3.532,3.532,3.5314,3.529,3.5291,3.528,3.5264,3.5258,3.5247,3.5243,3.5231,3.5225,3.5216,3.5195,3.5185,3.5192,3.5174,3.5183,3.5184,3.5187,3.5187,3.5227,3.5183,3.5183,3.5183,3.5183,0,3.5363,3.5366,3.5337,3.5337,3.5339,3.5316,3.5319,3.5306,3.5292,3.5288,3.5265,3.5262,3.5235,3.5228,3.5211,3.521,3.5207,3.5198,3.5194,3.5201,3.5202,3.5198,3.5196,3.5183,3.5183,3.5183,3.5183,0,3.5405,3.5385,3.5384,3.5361,3.5356,3.5358,3.5338,3.5337,3.5322,3.5318,3.5316,3.5291,3.5283,3.526,3.5246,3.5234,3.5237,3.5229,3.5243,3.5241,3.5252,3.5251,3.5291,3.5295,3.5248,3.5248,3.5248,0,3.5427,3.5429,3.5406,3.5403,3.5394,3.5388,3.5382,3.5358,3.5353,3.5335,3.5336,3.5325,3.5316,3.5303,3.5284,3.5272,3.5263,3.5278,3.5261,3.5268,3.5264,3.5264,3.5264,3.5282,3.5283,3.5283,3.5284,0,3.5467,3.5457,3.545,3.5439,3.5433,3.5423,3.5412,3.541,3.5383,3.5378,3.5369,3.5362,3.5347,3.5337,3.5322,3.531,3.5292,3.5289,3.529,3.5298,3.5306,3.5302,3.5254,3.5288,3.5288,3.5287,3.5287,3.5287,3.55,3.55,3.5485,3.5477,3.5466,3.5456,3.5454,3.5438,3.543,3.5417,3.5403,3.5396,3.5379,3.5357,3.5346,3.534,3.533,3.5333,3.5334,3.5335,3.5338,3.5307,3.5337,3.5336,3.5336,3.5336,3.5336,0,3.554,3.5528,3.5521,3.5506,3.55,3.5484,3.547,3.5466,3.546,3.5446,3.5438,3.5427,3.5417,3.5396,3.5383,3.5382,3.5373,3.5379,3.538,3.5377,3.5347,3.5347,3.5386,3.5386,3.5386,3.5386,3.5386,3.5386,3.556,3.556,3.5548,3.5541,3.5529,3.5523,3.5516,3.5506,3.5495,3.5485,3.5476,3.5463,3.5446,3.5431,3.5421,3.5415,3.5411,3.542,3.5412,3.5384,3.5379,3.5375,3.5375,3.542,3.542,3.5443,3.5443,3.5443]}]]